SL-4 R/B (47547 NORAD) Tracking and Keplerian Element Data

This shows tracking and keplerian element data for the satellite.

Feedback or suggestion? Click here.




ElementValue
Catalog47547
NameSL-4 R/B
Epoch Orbit427
Epoch Day62.24239962
Epoch Year2021
RAAN348.8196
Inclination67.1432
Eccentricity0.0449574
Argument of Perigee66.0643
Mean Anonmoly298.6909
Mean Motion15.06154995
Decay Rate0.00078301
L11 47547U 21008B 21062.24239962 .00078301 56545-5 40515-3 0 9993
L22 47547 67.1432 348.8196 0449574 66.0643 298.6909 15.06154995 4270

Live tracking and technical data element details for SL-4 R/B (NORAD 47547). SL-4 R/B can be tracked NOW for your location showing map with azimuth and elevation plus other details from your city location.

Track the satellite on the map from your city or location and see movement details for azimuth, elevation, latitude, longitude, range, height, and movement on the map or in text.







IsCatalogInMostPopularTable: catalog: 47547, numindb: 17
Update: records affected: 1



GetName: 47547 SL-4 R/B

Hit Count: updated at: Fri, 16 Apr 2021 10:07:49 GMT